Wind_Speed
32 34 35 35 36 38 40 42 42 43 42 43 44 43 44 43 43 39 38 38 30 29 35 30 32 40 46 56 54 58 55 55 64 65 63 44 39 45 43 47 48 49 48 39 35
34 34 35 36 39 40 41 41 40 41 41 41 42 41 39 37 37 32 18 15 5 11 24 22 27 39 54 58 57 68 53 61 71 70 46 47 30 45 38 39 43 44 44 39 36
35 36 38 40 41 42 42 40 41 41 40 40 39 38 36 32 27 13 4 6 10 20 15 16 21 31 49 59 46 56 70 76 60 47 59 37 41 45 41 47 48 41 31 34 39
37 39 41 41 41 43 42 41 41 39 39 38 37 35 27 20 13 14 17 17 22 28 27 23 27 22 35 44 56 47 55 63 62 56 20 54 57 49 50 55 43 35 33 31 38
38 40 42 42 43 42 40 39 39 38 36 36 33 26 18 19 19 9 14 13 14 22 26 27 28 32 33 42 43 45 53 53 68 39 62 38 45 55 59 47 34 26 31 31 31
40 42 43 44 45 41 38 37 37 36 34 34 25 16 18 29 14 22 24 17 17 22 22 22 21 22 29 37 38 48 51 51 52 52 49 56 49 48 53 47 39 36 30 34 35
42 43 45 46 45 41 37 36 36 32 33 26 16 16 25 16 23 23 27 24 20 19 14 18 18 22 25 27 28 45 50 49 53 64 57 39 48 51 40 40 43 39 33 32 31
42 44 45 46 45 41 36 34 36 31 30 15 14 19 23 18 22 22 28 29 19 17 18 19 24 26 26 27 28 29 37 44 69 44 70 41 40 52 44 44 49 39 38 33 27
43 44 45 46 45 40 37 33 33 30 23 13 11 30 11 29 27 29 31 30 21 21 23 21 28 27 26 24 24 26 29 30 44 46 35 51 40 41 30 34 44 47 41 39 33
43 43 44 46 43 41 37 35 29 21 17 12 14 23 27 28 31 33 35 25 24 28 23 23 25 25 27 26 21 25 28 32 36 50 36 31 49 40 46 41 37 41 42 41 42
45 43 43 45 42 41 37 36 33 25 18 10 17 25 29 33 32 21 19 25 25 22 22 18 23 31 28 29 28 29 30 38 34 33 32 47 43 48 50 47 43 44 44 46 43
45 44 43 41 40 39 34 31 30 26 21 11 19 25 27 33 28 21 24 23 22 25 24 25 33 29 27 28 29 35 32 33 34 20 30 39 50 37 52 45 41 32 52 44 41
43 45 44 38 39 36 30 28 27 25 15 4 25 24 27 30 25 25 28 31 23 20 14 21 29 15 18 25 30 35 40 40 26 11 37 27 40 35 31 41 51 46 36 50 49
43 43 45 38 39 38 30 28 29 25 4 14 25 21 24 25 21 18 24 34 14 23 22 16 6 9 12 27 26 30 33 37 33 21 27 42 5 37 45 34 44 58 46 46 45
44 43 40 36 38 36 31 28 28 18 4 20 27 24 24 25 23 25 21 34 20 23 17 20 27 18 18 23 14 32 31 35 26 33 7 33 18 6 26 39 43 49 54 46 52
44 42 40 32 32 32 27 25 21 7 4 17 30 30 28 32 20 30 24 31 22 26 19 25 11 6 12 15 24 24 20 26 24 22 9 19 31 11 16 34 41 41 42 45 46
42 40 38 39 37 33 26 23 5 6 18 20 34 30 23 37 26 30 29 37 40 33 41 23 10 14 10 11 8 28 23 6 7 8 6 18 24 4 12 27 33 39 36 47 39
41 35 35 37 36 32 23 16 9 14 18 28 30 26 20 34 27 31 28 29 41 37 29 16 10 21 22 15 5 21 29 5 5 7 10 21 11 4 7 19 26 32 37 47 44
40 36 33 38 38 32 20 14 9 14 23 25 26 23 24 33 26 26 28 23 34 41 25 13 9 20 19 2 3 11 17 8 3 6 7 17 14 13 12 24 30 33 38 41 50
43 38 34 42 38 30 27 14 13 19 21 19 16 17 23 36 28 28 25 17 36 39 31 12 14 15 23 5 4 6 16 7 7 5 6 7 15 5 14 20 26 32 38 42 37
44 40 32 43 37 38 29 15 15 19 15 16 17 17 23 35 30 21 22 17 33 42 34 19 8 22 17 21 24 9 8 3 4 5 2 5 5 5 12 20 24 27 36 37 37
44 39 34 46 39 37 25 21 17 21 12 16 18 16 21 32 21 15 22 20 27 35 38 21 8 16 17 7 23 12 18 8 4 5 6 6 4 7 12 18 23 24 29 37 35
47 39 36 43 40 37 30 20 18 20 15 17 16 18 27 29 13 17 25 19 22 32 31 20 13 11 5 4 25 20 28 9 1 1 10 3 5 7 11 15 19 20 31 33 39
48 43 41 42 38 34 34 27 22 21 14 18 16 25 29 29 25 13 29 25 18 27 26 9 15 16 7 8 15 23 30 15 6 7 6 9 12 9 10 12 14 23 23 28 31
46 46 44 43 40 34 29 28 25 26 18 20 18 24 26 25 27 20 23 22 18 25 29 20 4 6 7 7 19 30 29 29 25 10 7 11 11 5 4 8 11 13 16 22 25
43 44 49 45 42 36 31 30 27 25 17 19 21 25 22 24 26 28 18 16 19 24 30 26 10 6 9 8 9 14 27 27 22 24 21 14 12 5 2 6 9 11 13 15 18
44 46 47 45 44 37 30 29 26 24 14 15 19 25 22 22 18 11 11 11 15 21 30 27 20 5 2 5 8 4 28 23 21 26 16 15 13 7 0 6 11 11 12 14 15
Wind_Direction
351 348 345 341 336 332 328 324 321 316 315 314 314 312 309 306 304 309 305 296 289 269 266 263 236 223 216 215 213 212 225 232 226 229 235 236 229 242 247 247 245 248 248 258 242
350 346 343 342 339 335 330 326 321 319 317 316 314 312 310 311 310 313 309 319 303 213 245 258 260 227 216 218 214 209 226 224 233 233 233 231 232 239 235 236 236 236 242 244 231
347 345 345 344 341 336 332 327 324 322 319 317 316 315 317 315 320 320 342 225 251 236 262 281 249 239 217 219 229 221 224 225 228 234 237 235 236 233 235 240 238 242 244 235 227
346 346 345 344 343 338 334 328 326 323 320 320 320 321 323 330 333 307 293 274 270 274 300 302 278 250 231 230 226 237 221 231 238 227 232 238 231 238 238 241 242 243 246 243 236
346 346 343 343 343 340 334 329 325 323 323 324 325 327 332 338 329 310 311 295 287 272 277 290 288 280 271 243 243 236 228 235 226 240 234 235 217 236 240 240 238 231 222 233 240
347 345 342 345 343 340 335 329 326 327 328 328 330 334 336 332 331 321 315 303 283 295 296 297 302 291 282 263 267 243 237 235 232 228 230 241 244 228 230 233 231 214 225 234 239
346 344 343 345 343 340 337 331 328 331 333 330 335 336 329 320 319 325 323 320 301 298 294 303 302 284 277 282 271 258 247 237 231 227 227 238 241 234 206 216 213 221 232 234 232
346 344 343 344 342 340 337 336 332 336 336 334 341 331 335 328 323 313 319 315 303 281 294 298 302 285 266 275 266 263 255 260 230 231 226 236 239 230 226 222 216 221 223 218 217
345 345 344 343 341 341 338 341 337 335 335 333 347 338 336 324 310 308 307 307 290 290 290 276 291 275 262 257 257 255 250 249 255 233 239 233 244 233 217 207 221 226 222 215 205
345 346 346 344 341 341 339 340 342 336 338 346 346 344 333 323 312 311 308 292 295 297 278 275 279 276 259 245 233 244 245 248 253 235 233 229 235 236 223 221 209 212 217 215 210
344 347 347 344 342 341 338 337 335 335 355 353 345 338 338 326 331 338 317 304 302 297 291 284 273 261 249 245 258 271 253 247 250 241 238 235 233 235 226 230 218 216 209 210 211
346 346 348 345 342 340 339 337 338 331 339 343 338 341 343 330 338 341 331 323 315 305 297 285 264 257 257 256 255 250 254 248 250 246 224 234 242 232 233 229 216 210 218 211 212
350 345 346 346 343 339 337 333 332 330 327 306 350 350 347 337 359 352 355 351 332 324 312 279 271 274 240 253 257 255 239 234 227 247 219 234 245 230 225 238 240 225 214 214 228
350 346 344 345 346 341 337 334 337 336 291 334 352 354 348 353 356 355 351 354 345 326 322 288 297 280 245 257 258 250 222 224 219 248 202 211 244 232 228 228 233 232 213 215 205
349 346 347 347 343 338 336 336 338 337 16 341 343 340 353 7 349 6 6 3 342 327 304 291 301 284 265 255 264 230 217 210 206 231 246 207 238 169 221 227 233 233 232 208 207
351 345 347 351 347 342 342 338 340 343 307 337 341 346 356 4 9 358 8 4 4 344 332 322 311 295 276 275 259 226 181 185 197 228 245 223 200 229 210 224 228 230 239 225 212
354 348 348 353 353 355 354 342 345 55 323 335 346 354 358 0 8 9 7 12 10 346 342 358 323 3 346 319 216 191 184 160 183 202 224 205 195 307 211 212 219 228 218 203 205
358 352 353 354 359 1 357 352 40 342 343 343 346 352 352 356 353 4 4 3 7 0 342 347 322 351 339 333 275 222 168 165 146 186 209 221 179 128 158 173 203 206 212 225 227
1 357 354 360 7 7 8 28 20 354 344 337 350 352 353 354 346 352 3 4 1 7 351 322 296 320 357 3 167 189 231 242 41 160 200 165 107 151 159 159 172 192 202 218 220
5 2 360 6 11 12 17 42 22 3 347 352 348 349 340 345 349 349 3 1 352 6 1 314 303 346 12 60 107 183 200 235 214 205 186 144 148 89 158 156 169 178 189 201 208
5 6 6 9 5 13 33 27 12 6 349 352 345 332 343 344 342 342 351 357 357 357 1 347 306 334 14 15 15 50 182 241 232 248 328 131 104 159 141 148 160 167 184 189 202
6 12 6 5 8 19 20 15 5 7 7 356 353 346 343 344 329 337 336 346 357 1 354 354 312 309 330 2 10 37 17 12 342 358 67 72 106 185 157 150 159 168 174 177 193
2 12 9 7 12 10 9 11 9 5 4 359 355 348 346 348 332 328 344 5 360 7 359 3 343 320 352 23 6 20 11 348 306 73 31 74 145 179 166 156 159 170 177 189 194
1 3 4 8 8 3 0 359 360 6 12 359 350 351 346 346 348 317 340 351 1 12 12 13 58 61 105 77 32 23 22 22 127 64 68 60 136 151 163 163 161 176 181 189 194
1 358 358 354 2 1 355 353 355 353 6 356 354 355 350 338 343 334 345 351 9 12 16 14 346 335 357 23 31 40 36 43 66 71 82 122 103 80 131 160 158 165 176 187 192
358 350 346 354 354 355 352 349 349 350 350 354 346 353 354 345 335 329 336 359 0 9 16 10 351 305 298 291 306 3 39 44 61 78 91 85 73 72 175 176 164 164 172 182 190
351 348 343 347 347 345 348 344 343 336 341 346 337 338 351 346 336 323 341 342 2 9 7 2 1 347 204 331 302 335 9 19 44 54 58 45 20 35 110 202 184 163 172 186 191
Height
3074 3068 3063 3058 3052 3046 3039 3032 3025 3018 3011 3005 3000 2995 2989 2984 2980 2978 2974 2972 2972 2973 2970 2972 2976 2980 2984 2983 2988 2993 2989 2981 2981 2989 2988 3012 3014 3019 3027 3030 3036 3037 3039 3044 3052
3070 3065 3059 3054 3047 3040 3033 3026 3019 3012 3005 2999 2993 2987 2981 2977 2973 2970 2967 2965 2965 2966 2963 2963 2965 2967 2969 2972 2972 2975 2971 2967 2979 2985 2994 3005 3007 3013 3018 3020 3023 3028 3032 3037 3042
3065 3059 3054 3049 3042 3034 3026 3018 3012 3005 2998 2992 2986 2980 2976 2972 2969 2965 2966 2964 2963 2961 2958 2958 2960 2959 2960 2964 2964 2965 2962 2962 2970 2982 2992 2997 3000 3007 3008 3009 3013 3020 3028 3030 3033
3061 3055 3050 3044 3037 3029 3021 3012 3006 2999 2992 2985 2979 2975 2971 2968 2971 2966 2964 2962 2959 2957 2954 2953 2954 2954 2953 2953 2954 2951 2956 2961 2970 2979 2983 2982 2998 2996 2997 2998 3012 3019 3023 3027 3027
3058 3051 3045 3039 3032 3024 3016 3008 3001 2993 2986 2980 2975 2971 2968 2966 2964 2962 2960 2959 2955 2953 2951 2949 2949 2948 2947 2947 2943 2940 2946 2952 2964 2968 2973 2977 2979 2983 2987 2997 3006 3012 3014 3018 3022
3055 3048 3041 3035 3027 3020 3011 3003 2995 2989 2982 2976 2971 2968 2966 2965 2961 2958 2955 2954 2951 2948 2947 2946 2944 2943 2938 2938 2937 2938 2940 2940 2943 2954 2962 2965 2967 2976 2978 2992 2999 3002 3006 3011 3014
3052 3045 3037 3030 3022 3015 3007 2998 2990 2985 2978 2973 2969 2967 2966 2962 2958 2954 2951 2948 2945 2943 2940 2941 2939 2937 2935 2931 2932 2930 2930 2931 2933 2944 2952 2958 2959 2960 2971 2983 2990 2994 3001 3006 3008
3050 3041 3032 3025 3018 3010 3003 2994 2985 2980 2975 2970 2967 2965 2962 2959 2954 2950 2947 2942 2939 2938 2936 2934 2933 2929 2927 2928 2926 2926 2925 2920 2921 2936 2941 2949 2944 2955 2964 2972 2979 2987 2995 3001 3005
3046 3038 3029 3021 3012 3005 2996 2991 2983 2977 2973 2970 2968 2964 2959 2955 2950 2946 2943 2936 2933 2931 2930 2928 2926 2922 2921 2921 2921 2918 2916 2917 2919 2930 2938 2941 2936 2948 2955 2961 2970 2979 2987 2994 3000
3043 3035 3026 3017 3008 3000 2993 2986 2982 2976 2972 2969 2967 2964 2959 2950 2943 2940 2935 2929 2926 2923 2922 2921 2918 2915 2913 2915 2911 2913 2911 2912 2912 2923 2931 2935 2934 2946 2950 2955 2962 2972 2980 2987 2994
3038 3031 3023 3013 3004 2996 2989 2982 2982 2975 2969 2968 2965 2960 2953 2946 2941 2933 2928 2924 2920 2917 2914 2913 2911 2904 2903 2906 2907 2908 2907 2907 2909 2918 2923 2924 2932 2937 2945 2951 2956 2962 2973 2980 2989
3034 3027 3020 3011 3002 2993 2987 2981 2976 2973 2968 2965 2962 2956 2951 2943 2935 2931 2926 2920 2915 2909 2908 2906 2896 2895 2900 2900 2900 2900 2901 2903 2907 2913 2920 2918 2922 2930 2938 2944 2949 2957 2967 2975 2985
3034 3023 3017 3009 3000 2992 2985 2980 2975 2969 2967 2964 2960 2952 2948 2941 2934 2927 2923 2915 2907 2902 2901 2897 2891 2892 2893 2892 2892 2890 2892 2897 2906 2908 2912 2917 2916 2922 2930 2935 2942 2948 2956 2970 2977
3032 3023 3012 3005 2997 2986 2982 2976 2971 2965 2962 2964 2959 2953 2948 2940 2934 2928 2922 2916 2906 2900 2894 2889 2886 2886 2885 2883 2884 2881 2883 2894 2903 2908 2903 2910 2908 2910 2921 2926 2932 2942 2949 2960 2971
3030 3021 3013 3000 2993 2987 2980 2973 2968 2963 2967 2963 2957 2953 2947 2941 2934 2927 2922 2913 2904 2898 2894 2886 2881 2879 2878 2875 2877 2873 2880 2889 2899 2903 2902 2905 2914 2906 2916 2922 2926 2934 2947 2953 2963
3028 3017 3009 3005 2995 2986 2978 2971 2968 2967 2965 2961 2958 2948 2942 2936 2932 2924 2919 2913 2900 2891 2888 2880 2876 2875 2874 2869 2868 2875 2881 2889 2897 2901 2901 2899 2907 2908 2914 2914 2921 2927 2940 2950 2958
3026 3015 3006 2998 2991 2983 2976 2972 2970 2970 2971 2963 2953 2946 2942 2933 2928 2923 2917 2910 2904 2893 2882 2878 2875 2873 2871 2864 2861 2867 2877 2886 2894 2896 2892 2891 2901 2904 2905 2907 2918 2924 2935 2937 2945
3025 3016 3007 3000 2992 2984 2978 2973 2970 2973 2969 2964 2956 2950 2943 2935 2927 2922 2917 2912 2907 2901 2889 2884 2877 2872 2870 2867 2865 2862 2875 2875 2884 2887 2890 2891 2892 2902 2899 2898 2905 2914 2923 2929 2939
3023 3015 3008 3001 2991 2983 2978 2972 2976 2974 2969 2961 2955 2948 2944 2940 2934 2923 2919 2915 2912 2905 2902 2890 2880 2874 2870 2865 2867 2868 2872 2876 2874 2878 2882 2884 2894 2899 2898 2895 2898 2907 2916 2926 2934
3021 3014 3004 2997 2991 2985 2980 2976 2975 2972 2967 2963 2959 2954 2948 2940 2934 2929 2922 2919 2913 2909 2904 2896 2884 2875 2869 2864 2867 2867 2873 2875 2874 2875 2866 2876 2887 2897 2897 2896 2898 2905 2911 2921 2928
3019 3010 3002 2996 2991 2982 2975 2976 2974 2971 2967 2965 2960 2957 2953 2944 2937 2931 2927 2920 2915 2906 2902 2896 2893 2879 2875 2872 2871 2867 2870 2869 2868 2868 2861 2871 2898 2898 2896 2895 2897 2903 2908 2913 2923
3017 3009 2999 2993 2988 2978 2977 2975 2974 2969 2967 2964 2961 2956 2953 2947 2937 2934 2929 2925 2919 2912 2900 2896 2892 2884 2882 2880 2877 2873 2873 2870 2872 2870 2868 2876 2896 2893 2896 2897 2902 2906 2908 2910 2919
3013 3009 3001 2995 2983 2980 2979 2976 2972 2968 2964 2960 2959 2957 2952 2947 2942 2934 2930 2926 2921 2914 2907 2901 2896 2888 2881 2885 2880 2875 2875 2871 2871 2871 2874 2876 2892 2890 2892 2896 2898 2903 2904 2909 2915
3012 3005 3000 2995 2990 2984 2977 2974 2969 2968 2964 2961 2957 2955 2950 2944 2942 2934 2930 2924 2922 2917 2912 2906 2903 2900 2901 2903 2895 2885 2877 2870 2868 2872 2877 2885 2886 2891 2892 2895 2897 2897 2901 2906 2911
3013 3007 3004 2996 2989 2985 2979 2974 2968 2964 2964 2960 2956 2954 2950 2944 2938 2934 2930 2926 2923 2918 2913 2908 2906 2903 2902 2900 2897 2896 2889 2881 2871 2876 2880 2891 2890 2890 2891 2893 2895 2900 2903 2904 2908
3017 3011 3002 2997 2990 2985 2979 2973 2967 2964 2962 2959 2956 2953 2950 2945 2942 2934 2931 2927 2923 2919 2914 2910 2907 2904 2902 2900 2900 2898 2896 2893 2889 2888 2887 2891 2893 2895 2895 2895 2896 2897 2899 2905 2908
3013 3008 3000 2996 2989 2983 2980 2973 2968 2964 2962 2958 2953 2948 2947 2944 2939 2936 2932 2929 2925 2921 2915 2910 2907 2905 2902 2899 2897 2895 2894 2895 2895 2897 2897 2896 2898 2895 2895 2896 2896 2897 2900 2904 2907